Tracking 29892 objects as of 21-Nov-2024
HD Live streaming from Space Station
objects crossing your sky now

STARLINK-3055

Track STARLINK-3055 now!
10-day predictions
STARLINK-3055 is classified as:


NORAD ID: 49137
Int'l Code: 2021-082H
Perigee: 577.1 km
Apogee: 581.2 km
Inclination: 70.0 °
Period: 96.1 minutes
Semi major axis: 6950 km
RCS: Unknown
Launch date: September 14, 2021
Source: United States (US)
Launch site: AIR FORCE WESTERN TEST RANGE (AFWTR)
Your satellite tracking list
Your tracking list is empty




NASA's NSSDC Master Catalog

Two Line Element Set (TLE):
1 49137U 21082H   24325.15047631 -.00000161  00000-0 -57017-5 0  9995
2 49137  70.0000  30.9356 0002983 268.3702  91.7115 14.98338815175398
Source of the keplerian elements: AFSPC